Time,TemperatureF,DewpointF,PressureIn,WindDirection,WindDirectionDegrees,WindSpeedMPH,WindSpeedGustMPH,Humidity,HourlyPrecipIn,Conditions,Clouds,dailyrainin,SoftwareType,DateUTC
2013-01-26 00:05:00,27.1,25.6,30.13,SE,146,1.0,1.0,94,0.00,,,0.00,Wunderground v.1.15,2013-01-26 05:05:00,
2013-01-26 00:15:00,27.1,25.6,30.14,West,265,0.0,0.0,94,0.00,,,0.00,Wunderground v.1.15,2013-01-26 05:15:00,
2013-01-26 00:20:00,27.1,25.6,30.14,NNW,342,0.0,0.0,94,0.00,,,0.00,Wunderground v.1.15,2013-01-26 05:20:00,
2013-01-26 00:25:00,27.1,25.6,30.13,South,179,1.0,1.0,94,0.00,,,0.00,Wunderground v.1.15,2013-01-26 05:25:00,
2013-01-26 00:30:00,27.0,25.5,30.13,East,93,1.0,1.0,94,0.00,,,0.00,Wunderground v.1.15,2013-01-26 05:30:00,
2013-01-26 00:35:00,27.0,25.5,30.13,NNW,340,0.0,1.0,94,0.00,,,0.00,Wunderground v.1.15,2013-01-26 05:35:00,
2013-01-26 00:39:00,27.1,25.6,30.13,East,88,0.0,0.0,94,0.00,,,0.00,Wunderground v.1.15,2013-01-26 05:39:00,
2013-01-26 00:44:00,27.1,25.6,30.13,ESE,105,0.0,0.0,94,0.00,,,0.00,Wunderground v.1.15,2013-01-26 05:44:00,
2013-01-26 00:50:00,27.1,25.6,30.13,South,186,0.0,0.0,94,0.00,,,0.00,Wunderground v.1.15,2013-01-26 05:50:00,
2013-01-26 00:55:00,27.1,25.6,30.13,SE,136,0.0,0.0,94,0.00,,,0.00,Wunderground v.1.15,2013-01-26 05:55:00,
2013-01-26 01:05:00,27.0,25.5,30.13,NW,325,0.0,1.0,94,0.00,,,0.00,Wunderground v.1.15,2013-01-26 06:05:00,
2013-01-26 01:15:00,27.0,25.5,30.13,SE,144,0.0,0.0,94,0.00,,,0.00,Wunderground v.1.15,2013-01-26 06:15:00,
2013-01-26 01:20:00,27.0,25.8,30.13,SE,143,0.0,0.0,95,0.00,,,0.00,Wunderground v.1.15,2013-01-26 06:20:00,
2013-01-26 01:30:00,27.0,25.8,30.13,South,188,0.0,0.0,95,0.00,,,0.00,Wunderground v.1.15,2013-01-26 06:30:00,
2013-01-26 01:35:00,27.0,25.8,30.13,NW,306,0.0,2.0,95,0.00,,,0.00,Wunderground v.1.15,2013-01-26 06:35:00,
2013-01-26 01:40:00,26.9,25.7,30.13,NW,304,0.0,0.0,95,0.00,,,0.00,Wunderground v.1.15,2013-01-26 06:40:00,
2013-01-26 01:45:00,26.9,25.7,30.13,NW,305,0.0,0.0,95,0.00,,,0.00,Wunderground v.1.15,2013-01-26 06:45:00,
2013-01-26 01:50:00,26.9,25.7,30.13,NW,304,0.0,0.0,95,0.00,,,0.00,Wunderground v.1.15,2013-01-26 06:50:00,
2013-01-26 02:00:00,26.9,25.7,30.13,WNW,289,0.0,0.0,95,0.00,,,0.00,Wunderground v.1.15,2013-01-26 07:00:00,
2013-01-26 02:05:00,26.9,25.7,30.13,WNW,289,0.0,0.0,95,0.00,,,0.00,Wunderground v.1.15,2013-01-26 07:05:00,
2013-01-26 02:15:00,26.8,25.6,30.12,ESE,107,0.0,2.0,95,0.00,,,0.00,Wunderground v.1.15,2013-01-26 07:15:00,
2013-01-26 02:20:00,26.7,25.5,30.13,ESE,107,0.0,0.0,95,0.00,,,0.00,Wunderground v.1.15,2013-01-26 07:20:00,
2013-01-26 02:25:00,26.7,25.5,30.13,SSE,150,0.0,0.0,95,0.00,,,0.00,Wunderground v.1.15,2013-01-26 07:25:00,
2013-01-26 02:35:00,26.7,25.5,30.12,North,5,0.0,1.0,95,0.00,,,0.00,Wunderground v.1.15,2013-01-26 07:35:00,
2013-01-26 02:40:00,26.7,25.5,30.12,East,81,0.0,0.0,95,0.00,,,0.00,Wunderground v.1.15,2013-01-26 07:40:00,
2013-01-26 02:45:00,26.7,25.5,30.13,East,101,0.0,0.0,95,0.00,,,0.00,Wunderground v.1.15,2013-01-26 07:45:00,
2013-01-26 02:50:00,26.7,25.5,30.12,East,101,0.0,0.0,95,0.00,,,0.00,Wunderground v.1.15,2013-01-26 07:50:00,
2013-01-26 02:55:00,26.7,25.5,30.13,East,101,0.0,0.0,95,0.00,,,0.00,Wunderground v.1.15,2013-01-26 07:55:00,
2013-01-26 03:00:00,26.7,25.5,30.13,ESE,123,0.0,0.0,95,0.00,,,0.00,Wunderground v.1.15,2013-01-26 08:00:00,
2013-01-26 03:05:00,26.7,25.5,30.13,ESE,121,0.0,0.0,95,0.00,,,0.00,Wunderground v.1.15,2013-01-26 08:05:00,
2013-01-26 03:15:00,26.7,25.5,30.13,SSW,197,0.0,1.0,95,0.00,,,0.00,Wunderground v.1.15,2013-01-26 08:15:00,
2013-01-26 03:20:00,26.7,25.5,30.13,SSW,197,0.0,0.0,95,0.00,,,0.00,Wunderground v.1.15,2013-01-26 08:20:00,
2013-01-26 03:25:00,26.7,25.5,30.13,SSW,197,0.0,0.0,95,0.00,,,0.00,Wunderground v.1.15,2013-01-26 08:25:00,
2013-01-26 03:30:00,26.8,25.6,30.13,NW,304,0.0,1.0,95,0.00,,,0.00,Wunderground v.1.15,2013-01-26 08:30:00,
2013-01-26 03:40:00,26.8,25.8,30.13,SW,234,0.0,1.0,96,0.00,,,0.00,Wunderground v.1.15,2013-01-26 08:40:00,
2013-01-26 03:45:00,26.9,25.9,30.13,SSE,148,0.0,1.0,96,0.00,,,0.00,Wunderground v.1.15,2013-01-26 08:45:00,
2013-01-26 03:50:00,26.8,25.8,30.13,NW,305,0.0,1.0,96,0.00,,,0.00,Wunderground v.1.15,2013-01-26 08:50:00,
2013-01-26 03:55:00,26.8,25.8,30.13,NW,305,0.0,1.0,96,0.00,,,0.00,Wunderground v.1.15,2013-01-26 08:55:00,
2013-01-26 04:00:00,26.9,25.7,30.13,NW,305,0.0,0.0,95,0.00,,,0.00,Wunderground v.1.15,2013-01-26 09:00:00,
2013-01-26 04:05:00,26.9,25.7,30.13,West,279,0.0,0.0,95,0.00,,,0.00,Wunderground v.1.15,2013-01-26 09:05:00,
2013-01-26 04:14:00,27.0,26.0,30.13,West,279,0.0,0.0,96,0.00,,,0.00,Wunderground v.1.15,2013-01-26 09:14:00,
2013-01-26 04:19:00,27.0,26.0,30.13,South,190,0.0,0.0,96,0.00,,,0.00,Wunderground v.1.15,2013-01-26 09:19:00,
2013-01-26 04:25:00,27.0,26.0,30.13,South,190,0.0,0.0,96,0.00,,,0.00,Wunderground v.1.15,2013-01-26 09:25:00,
2013-01-26 04:30:00,27.0,26.0,30.13,NNW,327,0.0,0.0,96,0.00,,,0.00,Wunderground v.1.15,2013-01-26 09:30:00,
2013-01-26 04:35:00,27.0,26.0,30.14,ESE,111,0.0,0.0,96,0.00,,,0.00,Wunderground v.1.15,2013-01-26 09:35:00,
2013-01-26 04:40:00,27.0,26.0,30.14,ESE,115,0.0,0.0,96,0.00,,,0.00,Wunderground v.1.15,2013-01-26 09:40:00,
2013-01-26 04:50:00,27.0,26.0,30.14,South,174,0.0,0.0,96,0.00,,,0.00,Wunderground v.1.15,2013-01-26 09:50:00,
2013-01-26 04:55:00,27.0,26.0,30.14,WNW,294,0.0,1.0,96,0.00,,,0.00,Wunderground v.1.15,2013-01-26 09:55:00,
2013-01-26 05:00:00,27.0,26.0,30.15,WNW,294,0.0,0.0,96,0.00,,,0.00,Wunderground v.1.15,2013-01-26 10:00:00,
2013-01-26 05:05:00,27.1,26.1,30.14,WNW,294,0.0,0.0,96,0.00,,,0.00,Wunderground v.1.15,2013-01-26 10:05:00,
2013-01-26 05:15:00,27.1,26.1,30.14,WNW,294,0.0,0.0,96,0.00,,,0.00,Wunderground v.1.15,2013-01-26 10:15:00,
2013-01-26 05:20:00,27.1,26.1,30.15,WNW,294,0.0,0.0,96,0.00,,,0.00,Wunderground v.1.15,2013-01-26 10:20:00,
2013-01-26 05:25:00,27.1,26.1,30.15,WNW,294,0.0,0.0,96,0.00,,,0.00,Wunderground v.1.15,2013-01-26 10:25:00,
2013-01-26 05:30:00,27.1,26.1,30.15,WNW,294,0.0,0.0,96,0.00,,,0.00,Wunderground v.1.15,2013-01-26 10:30:00,
2013-01-26 05:35:00,27.1,26.1,30.15,WNW,294,0.0,0.0,96,0.00,,,0.00,Wunderground v.1.15,2013-01-26 10:35:00,
2013-01-26 05:40:00,27.2,26.2,30.15,WNW,294,0.0,0.0,96,0.00,,,0.00,Wunderground v.1.15,2013-01-26 10:40:00,
2013-01-26 05:45:00,27.2,26.2,30.16,WNW,294,0.0,0.0,96,0.00,,,0.00,Wunderground v.1.15,2013-01-26 10:45:00,
2013-01-26 05:55:00,27.2,26.2,30.16,WNW,294,0.0,0.0,96,0.00,,,0.00,Wunderground v.1.15,2013-01-26 10:55:00,
2013-01-26 06:00:00,27.2,26.2,30.16,WNW,294,0.0,0.0,96,0.00,,,0.00,Wunderground v.1.15,2013-01-26 11:00:00,
2013-01-26 06:05:00,27.3,26.3,30.17,WNW,294,0.0,0.0,96,0.00,,,0.00,Wunderground v.1.15,2013-01-26 11:05:00,
2013-01-26 06:15:00,27.4,26.4,30.17,WNW,294,0.0,0.0,96,0.00,,,0.00,Wunderground v.1.15,2013-01-26 11:15:00,
2013-01-26 06:20:00,27.4,26.4,30.17,WNW,294,0.0,0.0,96,0.00,,,0.00,Wunderground v.1.15,2013-01-26 11:20:00,
2013-01-26 06:30:00,27.5,26.5,30.18,WNW,294,0.0,0.0,96,0.00,,,0.00,Wunderground v.1.15,2013-01-26 11:30:00,
2013-01-26 06:35:00,27.5,26.5,30.18,WNW,294,0.0,0.0,96,0.00,,,0.00,Wunderground v.1.15,2013-01-26 11:35:00,
2013-01-26 06:40:00,27.5,26.5,30.19,WNW,294,0.0,0.0,96,0.00,,,0.00,Wunderground v.1.15,2013-01-26 11:40:00,
2013-01-26 06:45:00,27.5,26.5,30.19,WNW,294,0.0,0.0,96,0.00,,,0.00,Wunderground v.1.15,2013-01-26 11:45:00,
2013-01-26 06:50:00,27.5,26.5,30.19,WNW,294,0.0,0.0,96,0.00,,,0.00,Wunderground v.1.15,2013-01-26 11:50:00,
2013-01-26 06:59:00,27.6,26.6,30.19,WNW,294,0.0,0.0,96,0.00,,,0.00,Wunderground v.1.15,2013-01-26 11:59:00,
2013-01-26 07:05:00,27.6,26.6,30.19,WNW,294,0.0,0.0,96,0.00,,,0.00,Wunderground v.1.15,2013-01-26 12:05:00,
2013-01-26 07:15:00,27.6,26.6,30.20,WNW,294,0.0,0.0,96,0.00,,,0.00,Wunderground v.1.15,2013-01-26 12:15:00,
2013-01-26 07:20:00,27.7,26.7,30.20,WNW,294,0.0,0.0,96,0.00,,,0.00,Wunderground v.1.15,2013-01-26 12:20:00,
2013-01-26 07:25:00,27.7,26.7,30.20,WNW,294,0.0,0.0,96,0.00,,,0.00,Wunderground v.1.15,2013-01-26 12:25:00,
2013-01-26 07:35:00,27.7,26.7,30.20,WNW,294,0.0,0.0,96,0.00,,,0.00,Wunderground v.1.15,2013-01-26 12:35:00,
2013-01-26 07:40:00,27.8,26.8,30.21,WNW,294,0.0,0.0,96,0.00,,,0.00,Wunderground v.1.15,2013-01-26 12:40:00,
2013-01-26 07:45:00,27.8,26.8,30.21,WNW,294,0.0,0.0,96,0.00,,,0.00,Wunderground v.1.15,2013-01-26 12:45:00,
2013-01-26 07:50:00,27.9,26.9,30.21,WNW,294,0.0,0.0,96,0.00,,,0.00,Wunderground v.1.15,2013-01-26 12:50:00,
2013-01-26 07:55:00,27.9,26.9,30.21,WNW,294,0.0,0.0,96,0.00,,,0.00,Wunderground v.1.15,2013-01-26 12:55:00,
2013-01-26 08:05:00,27.9,26.9,30.22,WNW,294,0.0,0.0,96,0.00,,,0.00,Wunderground v.1.15,2013-01-26 13:05:00,
2013-01-26 08:15:00,28.0,27.3,30.22,WNW,294,0.0,0.0,97,0.00,,,0.00,Wunderground v.1.15,2013-01-26 13:15:00,
2013-01-26 08:20:00,28.1,27.4,30.23,WNW,294,0.0,0.0,97,0.00,,,0.00,Wunderground v.1.15,2013-01-26 13:20:00,
2013-01-26 08:25:00,28.1,27.4,30.23,WNW,294,0.0,0.0,97,0.00,,,0.00,Wunderground v.1.15,2013-01-26 13:25:00,
2013-01-26 08:30:00,28.3,27.6,30.23,WNW,294,0.0,0.0,97,0.00,,,0.00,Wunderground v.1.15,2013-01-26 13:30:00,
2013-01-26 08:40:00,28.4,27.7,30.24,WNW,294,0.0,0.0,97,0.00,,,0.00,Wunderground v.1.15,2013-01-26 13:40:00,
2013-01-26 08:45:00,28.5,27.8,30.24,WNW,294,0.0,0.0,97,0.00,,,0.00,Wunderground v.1.15,2013-01-26 13:45:00,
2013-01-26 08:50:00,28.6,27.9,30.25,WNW,294,0.0,0.0,97,0.00,,,0.00,Wunderground v.1.15,2013-01-26 13:50:00,
2013-01-26 08:55:00,28.7,28.0,30.25,WNW,294,0.0,0.0,97,0.00,,,0.00,Wunderground v.1.15,2013-01-26 13:55:00,
2013-01-26 09:00:00,28.8,28.1,30.25,WNW,294,0.0,0.0,97,0.00,,,0.00,Wunderground v.1.15,2013-01-26 14:00:00,
2013-01-26 09:05:00,28.8,28.1,30.25,WNW,294,0.0,0.0,97,0.00,,,0.00,Wunderground v.1.15,2013-01-26 14:05:00,
2013-01-26 09:15:00,28.9,28.2,30.25,WNW,294,0.0,0.0,97,0.00,,,0.00,Wunderground v.1.15,2013-01-26 14:15:00,
2013-01-26 09:20:00,29.0,28.3,30.25,WNW,294,0.0,0.0,97,0.00,,,0.00,Wunderground v.1.15,2013-01-26 14:20:00,
2013-01-26 09:25:00,29.0,28.0,30.25,WNW,294,0.0,0.0,96,0.00,,,0.00,Wunderground v.1.15,2013-01-26 14:25:00,
2013-01-26 09:30:00,29.1,28.4,30.25,WNW,294,0.0,0.0,97,0.00,,,0.00,Wunderground v.1.15,2013-01-26 14:30:00,
2013-01-26 09:35:00,29.2,28.5,30.26,WNW,294,0.0,0.0,97,0.00,,,0.00,Wunderground v.1.15,2013-01-26 14:35:00,
2013-01-26 09:40:00,29.3,28.6,30.26,WNW,294,0.0,0.0,97,0.00,,,0.00,Wunderground v.1.15,2013-01-26 14:40:00,
2013-01-26 09:45:00,29.3,28.6,30.26,WNW,294,0.0,0.0,97,0.00,,,0.00,Wunderground v.1.15,2013-01-26 14:45:00,
2013-01-26 09:50:00,29.4,28.7,30.27,WNW,294,0.0,0.0,97,0.00,,,0.00,Wunderground v.1.15,2013-01-26 14:50:00,
2013-01-26 09:55:00,29.5,28.8,30.27,WNW,294,0.0,0.0,97,0.00,,,0.00,Wunderground v.1.15,2013-01-26 14:55:00,
2013-01-26 10:00:00,29.7,29.0,30.27,WNW,294,0.0,0.0,97,0.00,,,0.00,Wunderground v.1.15,2013-01-26 15:00:00,
2013-01-26 10:05:00,29.8,29.1,30.28,WNW,294,0.0,0.0,97,0.00,,,0.00,Wunderground v.1.15,2013-01-26 15:05:00,
2013-01-26 10:15:00,30.1,29.4,30.28,West,280,0.0,0.0,97,0.00,,,0.00,Wunderground v.1.15,2013-01-26 15:15:00,
2013-01-26 10:20:00,30.3,29.6,30.28,West,280,0.0,0.0,97,0.00,,,0.00,Wunderground v.1.15,2013-01-26 15:20:00,
2013-01-26 10:25:00,30.4,29.7,30.28,West,281,0.0,0.0,97,0.00,,,0.00,Wunderground v.1.15,2013-01-26 15:25:00,
2013-01-26 10:30:00,30.5,29.8,30.29,West,281,0.0,1.0,97,0.00,,,0.00,Wunderground v.1.15,2013-01-26 15:30:00,
2013-01-26 10:35:00,30.5,29.5,30.28,West,281,0.0,1.0,96,0.00,,,0.00,Wunderground v.1.15,2013-01-26 15:35:00,
2013-01-26 10:40:00,30.6,29.6,30.28,West,281,0.0,0.0,96,0.00,,,0.00,Wunderground v.1.15,2013-01-26 15:40:00,
2013-01-26 10:45:00,30.8,30.0,30.28,West,281,0.0,1.0,97,0.00,,,0.00,Wunderground v.1.15,2013-01-26 15:45:00,
2013-01-26 10:55:00,31.0,30.0,30.28,WNW,282,0.0,0.0,96,0.00,,,0.00,Wunderground v.1.15,2013-01-26 15:55:00,
2013-01-26 11:00:00,31.2,30.2,30.29,WNW,282,0.0,0.0,96,0.00,,,0.00,Wunderground v.1.15,2013-01-26 16:00:00,
2013-01-26 11:05:00,31.3,30.3,30.29,WNW,282,0.0,0.0,96,0.00,,,0.00,Wunderground v.1.15,2013-01-26 16:05:00,
2013-01-26 11:14:00,31.5,30.5,30.29,WNW,284,0.0,0.0,96,0.00,,,0.00,Wunderground v.1.15,2013-01-26 16:14:00,
2013-01-26 11:20:00,31.7,30.7,30.29,WNW,284,0.0,0.0,96,0.00,,,0.00,Wunderground v.1.15,2013-01-26 16:20:00,
2013-01-26 11:25:00,31.9,30.9,30.29,WNW,284,0.0,0.0,96,0.00,,,0.00,Wunderground v.1.15,2013-01-26 16:25:00,
2013-01-26 11:34:00,32.1,31.1,30.28,WNW,296,0.0,0.0,96,0.00,,,0.01,Wunderground v.1.15,2013-01-26 16:34:00,
2013-01-26 11:40:00,32.2,31.2,30.28,WNW,296,0.0,0.0,96,0.00,,,0.01,Wunderground v.1.15,2013-01-26 16:40:00,
2013-01-26 11:45:00,32.3,31.3,30.28,WNW,296,0.0,0.0,96,0.00,,,0.01,Wunderground v.1.15,2013-01-26 16:45:00,
2013-01-26 11:50:00,32.4,31.4,30.28,WNW,296,0.0,0.0,96,0.00,,,0.01,Wunderground v.1.15,2013-01-26 16:50:00,
2013-01-26 12:00:00,32.5,31.5,30.28,WSW,257,0.0,0.0,96,0.00,,,0.01,Wunderground v.1.15,2013-01-26 17:00:00,
2013-01-26 12:05:00,32.6,31.6,30.27,WSW,257,0.0,0.0,96,0.00,,,0.01,Wunderground v.1.15,2013-01-26 17:05:00,
2013-01-26 12:15:00,32.8,31.5,30.27,West,260,0.0,0.0,95,0.00,,,0.01,Wunderground v.1.15,2013-01-26 17:15:00,
2013-01-26 12:20:00,32.8,31.5,30.27,West,260,0.0,0.0,95,0.00,,,0.01,Wunderground v.1.15,2013-01-26 17:20:00,
2013-01-26 12:25:00,33.0,31.7,30.27,West,260,0.0,0.0,95,0.00,,,0.01,Wunderground v.1.15,2013-01-26 17:25:00,
2013-01-26 12:35:00,33.2,31.9,30.26,NE,36,0.0,1.0,95,0.00,,,0.01,Wunderground v.1.15,2013-01-26 17:35:00,
2013-01-26 12:40:00,33.1,31.6,30.27,WNW,292,0.0,0.0,94,0.00,,,0.01,Wunderground v.1.15,2013-01-26 17:40:00,
2013-01-26 12:45:00,33.0,31.5,30.26,WNW,291,0.0,0.0,94,0.00,,,0.01,Wunderground v.1.15,2013-01-26 17:45:00,
2013-01-26 12:50:00,33.1,31.6,30.26,WNW,288,0.0,0.0,94,0.00,,,0.01,Wunderground v.1.15,2013-01-26 17:50:00,
2013-01-26 12:59:00,33.2,31.4,30.26,WNW,290,0.0,1.0,93,0.00,,,0.01,Wunderground v.1.15,2013-01-26 17:59:00,
2013-01-26 13:05:00,33.1,31.3,30.26,WNW,290,0.0,1.0,93,0.00,,,0.01,Wunderground v.1.15,2013-01-26 18:05:00,
2013-01-26 13:15:00,33.3,31.5,30.26,North,5,0.0,1.0,93,0.00,,,0.01,Wunderground v.1.15,2013-01-26 18:15:00,
2013-01-26 13:20:00,33.4,31.6,30.26,North,5,0.0,0.0,93,0.39,,,0.03,Wunderground v.1.15,2013-01-26 18:20:00,
2013-01-26 13:25:00,33.5,32.0,30.25,North,5,0.0,0.0,94,0.09,,,0.03,Wunderground v.1.15,2013-01-26 18:25:00,
2013-01-26 13:30:00,33.6,31.8,30.26,NW,326,0.0,1.0,93,0.05,,,0.03,Wunderground v.1.15,2013-01-26 18:30:00,
2013-01-26 13:40:00,33.7,31.9,30.26,NW,323,0.0,0.0,93,0.00,,,0.03,Wunderground v.1.15,2013-01-26 18:40:00,
2013-01-26 13:45:00,33.8,32.0,30.25,SSE,167,0.0,0.0,93,0.00,,,0.03,Wunderground v.1.15,2013-01-26 18:45:00,
2013-01-26 13:50:00,33.8,32.0,30.25,SSE,167,0.0,0.0,93,0.00,,,0.03,Wunderground v.1.15,2013-01-26 18:50:00,
2013-01-26 13:55:00,33.9,32.1,30.25,SW,223,0.0,0.0,93,0.00,,,0.03,Wunderground v.1.15,2013-01-26 18:55:00,
2013-01-26 14:00:00,34.1,32.3,30.25,SW,229,0.0,0.0,93,0.00,,,0.03,Wunderground v.1.15,2013-01-26 19:00:00,
2013-01-26 14:05:00,34.3,32.5,30.25,SW,229,0.0,0.0,93,0.00,,,0.03,Wunderground v.1.15,2013-01-26 19:05:00,
2013-01-26 14:15:00,34.4,32.3,30.25,WSW,256,0.0,2.0,92,0.00,,,0.03,Wunderground v.1.15,2013-01-26 19:15:00,
2013-01-26 14:20:00,34.3,32.2,30.25,West,266,0.0,0.0,92,0.00,,,0.03,Wunderground v.1.15,2013-01-26 19:20:00,
2013-01-26 14:25:00,34.2,31.8,30.25,West,266,0.0,0.0,91,0.00,,,0.03,Wunderground v.1.15,2013-01-26 19:25:00,
2013-01-26 14:30:00,34.4,32.3,30.25,West,266,0.0,0.0,92,0.18,,,0.05,Wunderground v.1.15,2013-01-26 19:30:00,
2013-01-26 14:35:00,34.4,32.3,30.26,West,267,0.0,0.0,92,0.07,,,0.05,Wunderground v.1.15,2013-01-26 19:35:00,
2013-01-26 14:40:00,34.4,32.3,30.26,West,267,0.0,0.0,92,0.04,,,0.05,Wunderground v.1.15,2013-01-26 19:40:00,
2013-01-26 14:50:00,34.4,32.3,30.26,West,267,0.0,1.0,92,0.00,,,0.05,Wunderground v.1.15,2013-01-26 19:50:00,
2013-01-26 14:55:00,34.4,32.0,30.26,West,272,0.0,1.0,91,0.00,,,0.05,Wunderground v.1.15,2013-01-26 19:55:00,
2013-01-26 15:00:00,34.4,32.3,30.26,West,272,0.0,0.0,92,0.00,,,0.05,Wunderground v.1.15,2013-01-26 20:00:00,
2013-01-26 15:05:00,34.4,32.3,30.26,West,273,0.0,0.0,92,0.00,,,0.05,Wunderground v.1.15,2013-01-26 20:05:00,
2013-01-26 15:15:00,34.4,32.3,30.26,West,273,0.0,0.0,92,0.00,,,0.05,Wunderground v.1.15,2013-01-26 20:15:00,
2013-01-26 15:20:00,34.5,32.4,30.26,West,273,0.0,0.0,92,0.00,,,0.05,Wunderground v.1.15,2013-01-26 20:20:00,
2013-01-26 15:25:00,34.5,32.4,30.26,West,275,0.0,0.0,92,0.00,,,0.05,Wunderground v.1.15,2013-01-26 20:25:00,
2013-01-26 15:30:00,34.5,32.4,30.26,West,275,0.0,0.0,92,0.00,,,0.05,Wunderground v.1.15,2013-01-26 20:30:00,
2013-01-26 15:35:00,34.4,32.3,30.26,West,275,0.0,0.0,92,0.00,,,0.05,Wunderground v.1.15,2013-01-26 20:35:00,
2013-01-26 15:45:00,34.4,32.3,30.27,West,277,0.0,0.0,92,0.00,,,0.05,Wunderground v.1.15,2013-01-26 20:45:00,
2013-01-26 15:55:00,34.4,32.3,30.27,West,277,0.0,0.0,92,0.00,,,0.05,Wunderground v.1.15,2013-01-26 20:55:00,
2013-01-26 16:00:00,34.4,32.3,30.27,West,277,0.0,0.0,92,0.00,,,0.05,Wunderground v.1.15,2013-01-26 21:00:00,
2013-01-26 16:05:00,34.4,32.3,30.27,NNW,342,0.0,0.0,92,0.00,,,0.05,Wunderground v.1.15,2013-01-26 21:05:00,
2013-01-26 16:15:00,34.4,32.3,30.28,NNW,342,0.0,0.0,92,0.00,,,0.05,Wunderground v.1.15,2013-01-26 21:15:00,
2013-01-26 16:20:00,34.3,32.2,30.28,NNW,342,0.0,0.0,92,0.00,,,0.05,Wunderground v.1.15,2013-01-26 21:20:00,
2013-01-26 16:30:00,34.3,32.2,30.28,NNW,342,0.0,0.0,92,0.00,,,0.05,Wunderground v.1.15,2013-01-26 21:30:00,
2013-01-26 16:35:00,34.2,32.1,30.28,NNW,342,0.0,0.0,92,0.00,,,0.05,Wunderground v.1.15,2013-01-26 21:35:00,
2013-01-26 16:40:00,34.2,32.1,30.28,NNW,342,0.0,0.0,92,0.00,,,0.05,Wunderground v.1.15,2013-01-26 21:40:00,
2013-01-26 16:45:00,34.2,32.1,30.28,NNW,342,0.0,0.0,92,0.00,,,0.05,Wunderground v.1.15,2013-01-26 21:45:00,
2013-01-26 16:50:00,34.1,32.0,30.28,NNW,342,0.0,0.0,92,0.00,,,0.05,Wunderground v.1.15,2013-01-26 21:50:00,
2013-01-26 17:00:00,34.0,31.9,30.29,NNW,342,0.0,0.0,92,0.00,,,0.05,Wunderground v.1.15,2013-01-26 22:00:00,
2013-01-26 17:05:00,34.0,31.9,30.29,NNW,342,0.0,0.0,92,0.00,,,0.05,Wunderground v.1.15,2013-01-26 22:05:00,
2013-01-26 17:15:00,33.8,31.7,30.29,NNW,342,0.0,0.0,92,0.00,,,0.06,Wunderground v.1.15,2013-01-26 22:15:00,
2013-01-26 17:20:00,33.7,31.6,30.29,NNW,342,0.0,0.0,92,0.00,,,0.06,Wunderground v.1.15,2013-01-26 22:20:00,
2013-01-26 17:25:00,33.6,31.5,30.30,NNW,342,0.0,0.0,92,0.00,,,0.06,Wunderground v.1.15,2013-01-26 22:25:00,
2013-01-26 17:35:00,33.1,31.0,30.30,NNW,342,0.0,0.0,92,0.00,,,0.06,Wunderground v.1.15,2013-01-26 22:35:00,
2013-01-26 17:40:00,32.9,30.8,30.30,NNW,342,0.0,0.0,92,0.00,,,0.06,Wunderground v.1.15,2013-01-26 22:40:00,
2013-01-26 17:45:00,32.6,30.5,30.30,NNW,342,0.0,0.0,92,0.00,,,0.06,Wunderground v.1.15,2013-01-26 22:45:00,
2013-01-26 17:50:00,32.4,30.3,30.30,NNW,342,0.0,0.0,92,0.00,,,0.06,Wunderground v.1.15,2013-01-26 22:50:00,
2013-01-26 17:55:00,32.1,30.0,30.30,NNW,342,0.0,0.0,92,0.00,,,0.06,Wunderground v.1.15,2013-01-26 22:55:00,
2013-01-26 18:00:00,31.9,30.1,30.31,NNW,342,0.0,0.0,93,0.00,,,0.06,Wunderground v.1.15,2013-01-26 23:00:00,
2013-01-26 18:05:00,31.7,29.9,30.31,NNW,342,0.0,0.0,93,0.00,,,0.06,Wunderground v.1.15,2013-01-26 23:05:00,
2013-01-26 18:15:00,31.4,29.6,30.32,NNW,342,0.0,0.0,93,0.00,,,0.06,Wunderground v.1.15,2013-01-26 23:15:00,
2013-01-26 18:20:00,31.3,29.5,30.32,NNW,342,0.0,0.0,93,0.00,,,0.06,Wunderground v.1.15,2013-01-26 23:20:00,
2013-01-26 18:25:00,31.1,29.3,30.32,NNW,342,0.0,0.0,93,0.00,,,0.06,Wunderground v.1.15,2013-01-26 23:25:00,
2013-01-26 18:30:00,31.0,29.2,30.32,NNW,342,0.0,0.0,93,0.00,,,0.06,Wunderground v.1.15,2013-01-26 23:30:00,
2013-01-26 18:35:00,31.0,29.5,30.32,NNW,342,0.0,0.0,94,0.00,,,0.06,Wunderground v.1.15,2013-01-26 23:35:00,
2013-01-26 18:45:00,30.9,29.4,30.33,NNW,342,0.0,0.0,94,0.00,,,0.06,Wunderground v.1.15,2013-01-26 23:45:00,
2013-01-26 18:50:00,30.8,29.3,30.33,NNW,342,0.0,0.0,94,0.00,,,0.06,Wunderground v.1.15,2013-01-26 23:50:00,
2013-01-26 18:55:00,30.7,29.2,30.34,NNW,342,0.0,0.0,94,0.00,,,0.06,Wunderground v.1.15,2013-01-26 23:55:00,
2013-01-26 19:00:00,30.6,29.1,30.34,NNW,342,0.0,0.0,94,0.00,,,0.06,Wunderground v.1.15,2013-01-27 00:00:00,
2013-01-26 19:05:00,30.5,29.0,30.34,NNW,342,0.0,0.0,94,0.00,,,0.06,Wunderground v.1.15,2013-01-27 00:05:00,
2013-01-26 19:15:00,30.3,28.8,30.34,NNW,342,0.0,0.0,94,0.00,,,0.06,Wunderground v.1.15,2013-01-27 00:15:00,
2013-01-26 19:20:00,30.2,28.7,30.34,NNW,342,0.0,0.0,94,0.00,,,0.06,Wunderground v.1.15,2013-01-27 00:20:00,
2013-01-26 19:25:00,30.1,28.6,30.34,NNW,342,0.0,0.0,94,0.00,,,0.06,Wunderground v.1.15,2013-01-27 00:25:00,
2013-01-26 19:30:00,30.0,28.5,30.34,NNW,342,0.0,0.0,94,0.00,,,0.06,Wunderground v.1.15,2013-01-27 00:30:00,
2013-01-26 19:35:00,30.0,28.5,30.34,NNW,342,0.0,0.0,94,0.00,,,0.06,Wunderground v.1.15,2013-01-27 00:35:00,
2013-01-26 19:45:00,29.8,28.3,30.34,NNW,342,0.0,0.0,94,0.00,,,0.06,Wunderground v.1.15,2013-01-27 00:45:00,
2013-01-26 19:50:00,29.8,28.3,30.34,NNW,342,0.0,0.0,94,0.00,,,0.06,Wunderground v.1.15,2013-01-27 00:50:00,
2013-01-26 19:55:00,29.7,28.2,30.34,NNW,342,0.0,0.0,94,0.00,,,0.06,Wunderground v.1.15,2013-01-27 00:55:00,
2013-01-26 20:05:00,29.4,27.9,30.35,NNW,342,0.0,0.0,94,0.00,,,0.06,Wunderground v.1.15,2013-01-27 01:05:00,
2013-01-26 20:15:00,29.3,27.8,30.36,NNW,342,0.0,0.0,94,0.00,,,0.06,Wunderground v.1.15,2013-01-27 01:15:00,
2013-01-26 20:25:00,29.1,27.6,30.36,NNW,342,0.0,0.0,94,0.00,,,0.06,Wunderground v.1.15,2013-01-27 01:25:00,
2013-01-26 20:30:00,29.0,27.5,30.36,NNW,342,0.0,0.0,94,0.00,,,0.06,Wunderground v.1.15,2013-01-27 01:30:00,
2013-01-26 20:35:00,28.9,27.1,30.36,NNW,342,0.0,0.0,93,0.00,,,0.06,Wunderground v.1.15,2013-01-27 01:35:00,
2013-01-26 20:40:00,28.8,27.3,30.36,NNW,342,0.0,0.0,94,0.00,,,0.06,Wunderground v.1.15,2013-01-27 01:40:00,
2013-01-26 20:45:00,28.8,27.3,30.36,NNW,342,0.0,0.0,94,0.00,,,0.06,Wunderground v.1.15,2013-01-27 01:45:00,
2013-01-26 20:55:00,28.7,27.2,30.36,NNW,342,0.0,0.0,94,0.00,,,0.06,Wunderground v.1.15,2013-01-27 01:55:00,
2013-01-26 21:00:00,28.5,27.0,30.37,NNW,342,0.0,0.0,94,0.00,,,0.06,Wunderground v.1.15,2013-01-27 02:00:00,
2013-01-26 21:05:00,28.4,26.9,30.37,NNW,342,0.0,0.0,94,0.00,,,0.06,Wunderground v.1.15,2013-01-27 02:05:00,
2013-01-26 21:15:00,28.2,26.4,30.38,NNW,342,0.0,0.0,93,0.00,,,0.06,Wunderground v.1.15,2013-01-27 02:15:00,
2013-01-26 21:20:00,28.1,26.3,30.38,NNW,342,0.0,0.0,93,0.00,,,0.06,Wunderground v.1.15,2013-01-27 02:20:00,
2013-01-26 21:25:00,28.0,26.2,30.38,NNW,342,0.0,0.0,93,0.00,,,0.06,Wunderground v.1.15,2013-01-27 02:25:00,
2013-01-26 21:30:00,27.9,26.1,30.38,NNW,342,0.0,0.0,93,0.00,,,0.06,Wunderground v.1.15,2013-01-27 02:30:00,
2013-01-26 21:35:00,27.8,26.0,30.39,NNW,342,0.0,0.0,93,0.00,,,0.06,Wunderground v.1.15,2013-01-27 02:35:00,
2013-01-26 21:44:00,27.5,25.7,30.40,NNW,342,0.0,0.0,93,0.00,,,0.06,Wunderground v.1.15,2013-01-27 02:44:00,
2013-01-26 21:50:00,27.4,25.6,30.40,NNW,342,0.0,0.0,93,0.00,,,0.06,Wunderground v.1.15,2013-01-27 02:50:00,
2013-01-26 21:55:00,27.3,25.5,30.40,NNW,342,0.0,0.0,93,0.00,,,0.06,Wunderground v.1.15,2013-01-27 02:55:00,
2013-01-26 22:05:00,27.1,25.3,30.41,NNW,342,0.0,0.0,93,0.00,,,0.06,Wunderground v.1.15,2013-01-27 03:05:00,
2013-01-26 22:15:00,27.0,25.2,30.41,NNW,342,0.0,0.0,93,0.00,,,0.06,Wunderground v.1.15,2013-01-27 03:15:00,
2013-01-26 22:20:00,26.9,25.1,30.41,NNW,342,0.0,0.0,93,0.00,,,0.06,Wunderground v.1.15,2013-01-27 03:20:00,
2013-01-26 22:25:00,26.7,24.9,30.41,NNW,342,0.0,0.0,93,0.00,,,0.06,Wunderground v.1.15,2013-01-27 03:25:00,
2013-01-26 22:35:00,26.4,24.7,30.41,NNW,342,0.0,0.0,93,0.00,,,0.06,Wunderground v.1.15,2013-01-27 03:35:00,
2013-01-26 22:40:00,26.3,24.6,30.41,NNW,342,0.0,0.0,93,0.00,,,0.06,Wunderground v.1.15,2013-01-27 03:40:00,
2013-01-26 22:45:00,26.2,24.5,30.41,NNW,342,0.0,0.0,93,0.00,,,0.06,Wunderground v.1.15,2013-01-27 03:45:00,
2013-01-26 22:50:00,26.1,24.6,30.42,NNW,342,0.0,0.0,94,0.00,,,0.06,Wunderground v.1.15,2013-01-27 03:50:00,
2013-01-26 22:55:00,26.0,24.3,30.42,NNW,342,0.0,0.0,93,0.00,,,0.06,Wunderground v.1.15,2013-01-27 03:55:00,
2013-01-26 23:00:00,25.9,24.2,30.42,NNW,342,0.0,0.0,93,0.00,,,0.06,Wunderground v.1.15,2013-01-27 04:00:00,
2013-01-26 23:05:00,25.7,24.2,30.42,NNW,342,0.0,0.0,94,0.00,,,0.06,Wunderground v.1.15,2013-01-27 04:05:00,
2013-01-26 23:15:00,25.4,23.9,30.42,NNW,342,0.0,0.0,94,0.00,,,0.06,Wunderground v.1.15,2013-01-27 04:15:00,
2013-01-26 23:20:00,25.2,23.7,30.42,NNW,342,0.0,0.0,94,0.00,,,0.06,Wunderground v.1.15,2013-01-27 04:20:00,
2013-01-26 23:25:00,25.1,23.6,30.42,NNW,342,0.0,0.0,94,0.00,,,0.06,Wunderground v.1.15,2013-01-27 04:25:00,
2013-01-26 23:30:00,24.9,23.4,30.43,NNW,342,0.0,0.0,94,0.00,,,0.06,Wunderground v.1.15,2013-01-27 04:30:00,
2013-01-26 23:35:00,24.7,23.2,30.43,NNW,342,0.0,0.0,94,0.00,,,0.06,Wunderground v.1.15,2013-01-27 04:35:00,
2013-01-26 23:45:00,24.4,22.9,30.43,NNW,342,0.0,0.0,94,0.00,,,0.06,Wunderground v.1.15,2013-01-27 04:45:00,
2013-01-26 23:50:00,24.3,22.8,30.43,NNW,342,0.0,0.0,94,0.00,,,0.06,Wunderground v.1.15,2013-01-27 04:50:00,
2013-01-26 23:55:00,24.1,22.6,30.43,NNW,342,0.0,0.0,94,0.00,,,0.06,Wunderground v.1.15,2013-01-27 04:55:00,